Regional Weather Roundup
Issued by NWS

Home | Current Version | Previous Version | Text Only | Print | Product List | Glossary On
Versions: 1 2 3 4 5 6 7 8 9 10 11 12 13 14 15 16 17 18 19 20 21 22 23 24 25 26 27 28 29 30 31 32 33 34 35 36 37 38 39 40 41 42 43 44 45 46 47 48 49 50
000
ASUS43 KTOP 260808
RWRKS

WEATHER ROUNDUP FOR KANSAS
NATIONAL WEATHER SERVICE GOODLAND KS
300 AM CDT WED APR 26 2017

NOTE:  "FAIR" INDICATES FEW OR NO CLOUDS BELOW 12,000 FEET WITH NO
SIGNIFICANT WEATHER AND/OR OBSTRUCTIONS TO VISIBILITY.

KSZ001>006-013>018-027>032-041>047-260900-
NORTHWEST KANSAS

CITY           SKY/WX    TMP DP  RH WIND       PRES   REMARKS
GOODLAND       CLOUDY    36  31  82 N23G29    29.76S WCI  24
HAYS           CLOUDY    40  34  79 N17       29.72R WCI  31
HILL CITY      CLOUDY    40  32  73 N14       29.74R WCI  32
RUSSELL        CLOUDY    40  34  79 N22G31    29.69R WCI  30
$$

KSZ061>065-074>080-084>089-260900-
SOUTHWEST KANSAS

CITY           SKY/WX    TMP DP  RH WIND       PRES   REMARKS
DODGE CITY     CLOUDY    40  37  89 N20G35    29.68S WCI  30
ELKHART          N/A     43  37  79 N18         N/A
GARDEN CITY    MOCLDY    42  36  79 N18       29.68R
PRATT          CLOUDY    39  36  87 N23       29.66F WCI  29
$$

KSZ066>073-081>083-090>101-260900-
SOUTHEAST KANSAS

CITY           SKY/WX    TMP DP  RH WIND       PRES   REMARKS
CHANUTE        CLOUDY    50  47  89 NW14      29.52R
COFFEYVILLE    CLOUDY    53  50  89 N13       29.53R
HUTCHINSON     CLOUDY    44  38  79 N17G25    29.63R
MEDICINE LODGE   N/A     43  39  86 N17G28    29.63R
NEWTON         CLOUDY    43  39  86 N18G30    29.60S
PARSONS        CLOUDY    52  50  93 NW13      29.53R
WICHITA INTL   CLOUDY    45  40  82 N21G30    29.61R
WICHITA JABRA  CLOUDY    44  40  85 N20G30    29.58S
WICHITA MCCONL CLOUDY    45  39  79 N17G30    29.59R
WINFIELD       CLOUDY    47  42  83 N16       29.58R
$$

KSZ007>012-019>026-033>040-048>060-102>105-260900-
NORTHEAST KANSAS

CITY           SKY/WX    TMP DP  RH WIND       PRES   REMARKS
CONCORDIA      CLOUDY    40  35  83 N17G24    29.67R WCI  31
EMPORIA        CLOUDY    45  44  97 NW15      29.57S
LAWRENCE       CLOUDY    47  45  93 NW17      29.53S
MANHATTAN      CLOUDY    44  36  73 N9        29.62R
MARYSVILLE     CLOUDY    41  36  81 NW20G26   29.62S
OLATHE IND     CLOUDY    48  46  93 NW15      29.51R
OLATHE EXE     CLOUDY    47  47 100 N14       29.49R
SALINA         CLOUDY    44  38  79 N22G29    29.65R
TOPEKA BILLARD CLOUDY    46  44  93 NW15      29.56R
TOPEKA FORBES  CLOUDY    47  43  86 N15       29.55S
$$




USA.gov is the U.S. government's official web portal to all federal, state and local government web resources and services.